Dewpoint
70 70 70 70 70 71 70 69 71 71 71 70 71 70 71 71 72 73 72 71 71 71 71 71 70 70 71 70 67 68 69 67 64 68 70 71 70 69 68 67 66 64 64
70 70 70 70 70 70 70 69 69 71 71 71 70 70 72 72 72 71 72 71 71 71 71 71 71 72 70 72 71 70 70 69 68 65 64 63 69 69 66 66 65 64 63
70 70 70 71 71 71 70 70 69 69 71 71 72 71 70 72 73 73 73 71 72 72 72 70 71 71 71 71 71 70 70 71 67 65 67 68 71 69 68 66 63 62 62
69 68 70 69 71 70 71 71 70 71 71 72 71 72 71 71 72 72 73 72 71 71 73 73 72 71 70 71 71 70 70 69 69 69 68 69 70 70 68 64 62 62 61
68 69 68 71 70 71 71 71 72 71 71 72 73 72 72 72 71 70 71 72 72 71 72 72 72 71 71 71 71 71 70 69 69 68 68 68 69 67 65 65 63 63 62
72 69 70 71 72 71 72 72 73 73 73 72 72 73 72 72 69 68 70 71 71 71 71 71 73 72 71 70 70 71 71 70 68 67 67 68 68 68 67 65 64 61 59
71 72 73 74 73 73 73 73 72 72 73 72 73 73 73 73 69 67 67 68 70 71 71 72 72 71 70 70 68 68 68 68 69 70 67 68 68 69 68 66 64 62 60
73 72 73 74 73 74 74 73 73 73 73 72 72 71 71 72 67 66 67 68 69 70 71 71 71 70 71 71 71 69 69 69 68 69 69 70 70 71 69 68 65 62 59
73 73 73 74 73 73 73 73 72 72 70 71 71 71 71 72 68 65 64 68 68 70 70 71 71 71 69 67 70 69 70 70 66 65 65 66 68 68 69 66 62 60 56
73 73 74 73 72 69 69 69 70 67 67 68 67 67 66 69 67 64 64 69 69 70 70 71 67 69 65 64 68 69 69 69 68 66 66 66 66 68 66 67 63 62 56
73 71 70 70 68 67 66 66 66 66 65 65 66 66 67 67 68 63 61 67 70 70 70 69 70 63 61 60 62 68 68 69 69 68 67 67 68 67 68 68 65 64 59
70 68 67 65 65 65 65 63 63 64 62 62 61 62 63 64 63 62 59 59 66 69 69 69 67 57 56 57 59 63 63 63 68 69 68 68 68 68 68 68 65 65 64
67 66 66 65 64 64 63 62 61 59 58 58 58 59 59 61 62 61 58 58 58 61 67 62 58 57 56 59 57 59 60 65 67 66 67 68 68 68 65 62 61 61 61
66 66 65 64 64 64 61 61 59 57 55 55 55 55 55 57 57 57 57 58 61 62 63 64 63 61 61 63 63 60 63 66 67 66 64 65 66 65 64 62 60 58 57
65 65 64 63 62 60 58 58 58 55 54 53 53 52 53 53 55 51 49 53 57 57 55 65 65 65 64 64 64 65 64 65 66 65 66 64 64 64 62 62 59 57 56
64 64 62 62 64 62 59 56 51 51 49 47 48 50 53 50 48 46 44 44 45 47 58 62 63 63 63 63 64 64 64 65 65 64 65 64 63 62 61 61 60 59 56
62 62 61 61 62 62 61 58 56 52 48 46 44 44 44 46 45 43 44 44 45 48 57 60 61 61 62 62 62 62 62 63 62 62 62 62 61 61 59 59 58 57 56
61 60 60 61 61 62 60 61 59 57 55 55 50 48 48 47 45 46 47 50 57 55 59 59 59 59 59 59 60 59 59 59 59 60 60 60 60 60 59 58 59 58 58
61 60 61 61 62 60 61 61 59 59 57 56 56 54 54 50 49 50 52 56 55 56 56 57 57 57 57 57 57 57 58 58 58 59 59 59 59 59 58 58 58 55 57
61 61 61 60 60 60 58 58 59 59 58 57 56 55 55 54 55 56 58 57 56 56 56 57 57 57 57 57 57 57 57 57 58 58 58 58 58 58 57 57 58 57 57
62 61 61 58 58 59 59 58 58 58 59 57 54 55 52 55 55 55 58 57 57 57 57 57 57 57 57 57 57 57 57 58 58 58 58 58 57 57 57 57 57 57 56
61 61 60 58 58 57 56 56 56 56 55 57 53 53 47 53 57 57 57 57 57 57 57 57 56 55 56 56 56 56 57 57 57 58 57 57 56 56 55 55 54 53 54
60 59 59 57 57 56 55 56 55 56 52 55 53 53 51 53 55 57 58 59 59 58 58 58 58 57 57 57 57 57 56 56 56 57 57 55 55 54 54 53 52 52 51
56 57 56 57 57 56 57 56 56 51 48 46 54 56 55 55 55 52 55 58 59 60 61 60 60 59 59 59 58 58 57 56 56 56 55 55 55 54 54 52 51 50 50
54 55 57 57 56 56 55 52 54 57 50 49 50 46 48 50 50 53 52 54 56 58 59 60 59 59 58 58 58 58 53 44 53 52 55 55 53 53 51 50 50 50 48
52 51 55 56 56 56 55 50 52 52 52 52 52 53 50 50 50 51 54 55 56 55 56 56 55 56 58 57 57 52 42 39 48 43 55 55 54 53 53 51 49 49 48
Lifted_Index
-5 -5 -4 -4 -4 -4 -4 -3 -4 -4 -4 -4 -4 -4 -4 -5 -5 -5 -5 -5 -5 -4 -4 -4 -4 -4 -4 -4 -3 -3 -4 -3 -3 -3 -3 -3 -2 -2 -2 -2 -1 0 1
-5 -5 -5 -5 -4 -4 -4 -4 -4 -4 -4 -4 -4 -4 -5 -5 -5 -5 -5 -5 -5 -4 -5 -4 -4 -5 -4 -4 -4 -4 -4 -3 -3 -3 -2 -2 -2 -2 -2 -2 -1 -0 1
-5 -5 -5 -5 -5 -5 -5 -4 -4 -4 -4 -4 -4 -4 -4 -5 -5 -5 -5 -5 -5 -5 -5 -5 -5 -5 -4 -4 -4 -4 -4 -4 -3 -3 -2 -2 -2 -3 -3 -2 -1 -0 0
-5 -5 -5 -5 -5 -5 -5 -5 -4 -4 -4 -4 -5 -5 -4 -4 -5 -5 -5 -5 -5 -5 -5 -5 -5 -5 -4 -4 -5 -4 -4 -4 -3 -3 -3 -3 -3 -3 -2 -2 -1 -1 -0
-5 -5 -5 -5 -5 -5 -5 -5 -5 -5 -4 -4 -5 -5 -5 -5 -5 -4 -5 -5 -5 -5 -5 -5 -5 -5 -5 -5 -5 -5 -4 -4 -4 -3 -3 -3 -3 -3 -2 -2 -1 -1 -1
-5 -5 -5 -5 -6 -6 -5 -5 -5 -5 -5 -5 -5 -5 -5 -5 -5 -5 -4 -4 -4 -4 -5 -5 -5 -5 -5 -5 -5 -5 -5 -5 -4 -4 -3 -3 -3 -3 -2 -2 -2 -1 -1
-6 -6 -7 -7 -7 -7 -6 -6 -6 -6 -6 -5 -5 -5 -5 -5 -5 -5 -5 -4 -4 -4 -4 -5 -5 -5 -5 -5 -5 -5 -5 -5 -4 -4 -3 -3 -3 -3 -3 -2 -2 -2 -1
-7 -8 -8 -8 -8 -8 -7 -7 -7 -7 -6 -6 -6 -5 -5 -5 -5 -5 -5 -5 -4 -4 -4 -4 -5 -5 -5 -5 -5 -5 -5 -4 -4 -4 -3 -3 -3 -3 -3 -3 -2 -2 -2
-8 -9 -9 -9 -8 -8 -8 -7 -7 -7 -6 -6 -5 -5 -4 -4 -5 -5 -5 -5 -4 -4 -4 -4 -4 -4 -5 -5 -4 -4 -4 -4 -4 -4 -3 -3 -3 -3 -3 -3 -2 -2 -2
-9 -9 -9 -9 -8 -8 -7 -6 -6 -5 -4 -4 -3 -3 -3 -3 -3 -4 -4 -4 -4 -3 -3 -4 -4 -4 -4 -4 -4 -4 -4 -4 -4 -4 -3 -3 -3 -3 -3 -3 -3 -2 -2
-9 -9 -8 -8 -7 -6 -5 -4 -3 -3 -1 -1 -0 -0 -1 -1 -2 -2 -3 -3 -3 -3 -3 -3 -3 -3 -4 -4 -3 -3 -3 -3 -3 -3 -3 -3 -3 -3 -3 -3 -3 -2 -2
-9 -8 -8 -6 -5 -3 -2 -1 0 1 2 3 3 3 2 1 1 -0 -1 -1 -2 -2 -2 -2 -3 -3 -3 -3 -3 -3 -3 -3 -3 -3 -3 -3 -3 -3 -3 -3 -2 -2 -2
-7 -6 -5 -4 -2 -1 0 1 2 3 4 5 5 5 5 4 3 2 1 0 -0 -1 -2 -2 -2 -2 -2 -2 -2 -2 -2 -2 -2 -2 -2 -2 -2 -2 -2 -2 -2 -2 -2
-5 -4 -3 -2 -1 0 1 2 2 4 5 6 6 6 5 5 4 3 3 2 1 0 -1 -1 -1 -2 -2 -2 -2 -2 -2 -2 -2 -2 -2 -1 -1 -1 -1 -1 -1 -1 -1
-3 -2 -1 -1 -0 1 1 1 2 3 5 6 6 6 5 5 4 4 3 3 2 2 1 0 0 -0 -1 -1 -1 -1 -1 -1 -1 -1 -1 -1 -1 -1 -1 -1 -1 -1 -1
-2 -2 -1 -0 0 1 1 1 2 3 4 5 6 5 5 4 4 4 3 3 2 2 2 1 1 1 0 -0 -0 -0 -0 -1 -1 -1 -0 -0 -0 -1 -1 -1 -1 -1 -0
-2 -1 -1 -0 -0 0 1 1 2 3 4 5 5 5 4 4 4 4 3 3 2 2 2 2 2 1 1 0 -0 -0 -0 -0 -0 -0 -0 -0 -0 -1 -1 -1 -1 -1 -0
-1 -1 -0 -0 0 0 1 1 2 2 3 4 4 5 5 5 6 5 4 3 2 2 1 1 1 1 1 1 0 0 -0 -0 0 0 -0 -0 -0 0 0 1 1 1 1
-1 -0 -0 0 0 0 0 1 1 1 2 3 3 4 5 6 6 6 5 5 4 3 2 2 1 1 1 1 1 1 1 0 0 0 0 1 1 2 2 2 3 3 3
-1 -0 -0 0 0 0 0 1 1 1 1 2 2 3 5 6 6 6 6 5 5 4 4 4 3 2 2 2 2 2 2 2 2 2 2 3 3 4 4 4 5 5 5
-1 -0 -0 0 0 0 0 1 1 1 1 1 2 3 4 4 4 5 5 5 5 5 5 5 5 4 4 3 3 3 3 3 4 4 4 4 5 5 5 6 6 6 6
-1 -1 0 0 0 0 1 1 1 1 1 1 1 2 3 3 3 3 3 4 4 4 4 4 4 4 4 4 4 4 4 4 4 4 4 5 5 6 6 6 6 7 7
-1 -1 -0 0 0 1 1 1 1 2 2 2 2 2 2 2 2 2 2 2 2 2 2 2 3 3 3 4 4 4 4 4 4 4 4 5 5 6 5 5 6 6 6
-1 -1 -0 0 0 0 1 1 1 1 2 2 2 2 2 2 2 2 2 2 2 2 1 1 2 2 3 3 3 4 4 4 4 4 5 5 5 5 5 5 5 6 6
-0 -0 -0 -0 -0 -0 0 1 1 1 2 2 2 2 3 3 3 3 2 2 2 2 1 1 2 2 2 3 3 3 4 4 4 5 5 5 5 5 5 5 5 6 6
0 0 -0 -0 -0 -0 0 1 1 1 2 2 2 2 3 3 3 3 3 2 2 2 2 2 2 2 2 2 3 3 3 4 4 4 5 5 5 5 5 6 6 6 6